Regional Weather Roundup
Issued by NWS

Home | Current Version | Previous Version | Text Only | Print | Product List | Glossary Off
Versions: 1 2 3 4 5 6 7 8 9 10 11 12 13 14 15 16 17 18 19 20 21 22 23 24 25 26 27 28 29 30 31 32 33 34 35 36 37 38 39 40 41 42 43 44 45 46 47 48 49 50

000
ASUS43 KLSX 311707
RWRMO

WEATHER SUMMARY FOR MISSOURI
NATIONAL WEATHER SERVICE SPRINGFIELD MO
1100 AM CST SAT JAN 31 2015

NOTE: "FAIR" INDICATES FEW OR NO CLOUDS BELOW 12,000 FEET WITH NO
       SIGNIFICANT WEATHER AND/OR OBSTRUCTIONS TO VISIBILITY.
       CURRENT SKY AND/OR WEATHER CONDITIONS ARE NOT AVAILABLE FOR
       CHILLICOTHE AND FARMINGTON.

MOZ001>031-035>038-043-044-053-054-311800-
...NORTHERN AND WESTERN MISSOURI...

CITY           SKY/WX    TMP DP  RH WIND       PRES   REMARKS
KANSAS CTY INT LGT RAIN  37  36  96 SE10      30.20F FOG     WCI  30
KANSAS C DTWN  LGT RAIN  40  37  89 SE8       30.22R
LEE`S SUMMIT   MIX PCPN  36  35  96 SE14      30.21F FOG     WCI  27
ST JOSEPH      LGT RAIN  37  36  96 SE7       30.22S FOG
CHILLICOTHE      N/A     37  35  92 CALM      30.26S
KIRKSVILLE     LGT RAIN  33  32  96 S7        30.26S FOG     WCI  27

$$
MOZ066>068-077>081-088>096-101>105-311800-
...SOUTHWEST MISSOURI...

CITY           SKY/WX    TMP DP  RH WIND       PRES   REMARKS
SPRINGFIELD    CLOUDY    41  24  51 SE15      30.24F
JOPLIN         CLOUDY    45  24  43 SE6       30.23F

$$
MOZ032>034-039>042-045>050-055>058-069>072-311800-
...CENTRAL MISSOURI...

CITY           SKY/WX    TMP DP  RH WIND       PRES   REMARKS
COLUMBIA       CLOUDY    37  25  61 S3        30.29F
JEFFERSON CITY CLOUDY    39  25  57 E3        30.31F
ROLLA          CLOUDY    40  24  53 SE3       30.27F
SEDALIA        LGT RAIN  38  34  85 SE5       30.28F
WHITEMAN AFB   LGT RAIN  37  34  89 E3        30.26S
WARRENSBURG    LGT RAIN  36  32  87 E3        30.25F
OSAGE BEACH    CLOUDY    41  25  52 S5        30.29S

$$
MOZ051-052-059>065-311800-
...EAST CENTRAL MISSOURI...

CITY           SKY/WX    TMP DP  RH WIND       PRES   REMARKS
ST LOUIS INTL  CLOUDY    43  23  45 SW5       30.32F
SPIRIT OF STL  CLOUDY    41  23  48 VRB3      30.32F
ST CHARLES     CLOUDY    35  27  72 E3        30.32F

$$
MOZ072>076-082>087-097>100-106>115-311800-
...SOUTH CENTRAL AND SOUTHEAST MISSOURI...

CITY           SKY/WX    TMP DP  RH WIND       PRES   REMARKS
CAPE GIRARDEAU CLOUDY    41  26  55 S8        30.38F
FARMINGTON     CLOUDY    41  21  45 S12       30.36S
POPLAR BLUFF   CLOUDY    37  27  67 E8        30.36F
WEST PLAINS    CLOUDY    39  24  55 S8        30.32R

$$


USA.gov is the U.S. government's official web portal to all federal, state and local government web resources and services.